GW3550 Weather Reports


Display with metric or nautical units.
time (UTC)temp
F
wind
direction
speed
MPH
gust
MPH
rain 1hr
in
rain 24hr
in
rain mn
in
humidity
%
barometer
mb
20260510051812 63 253 1.0 6.0 0.00 0.00 0.00 93 1015.9
20260510051309 63 244 2.0 3.0 0.00 0.00 0.00 93 1015.7
20260510050805 63 233 1.0 3.0 0.00 0.00 0.00 92 1015.8
20260510050257 64 231 2.0 3.0 0.00 0.00 0.00 92 1015.9
20260510045754 64 239 0.0 4.0 0.00 0.00 0.00 92 1015.8
20260510045250 64 250 3.0 4.0 0.00 0.00 0.00 92 1015.9
20260510044748 64 248 1.0 2.0 0.00 0.00 0.00 92 1016.1
20260510044245 64 268 0.0 6.0 0.00 0.00 0.00 92 1016.1
20260510043740 64 250 1.0 3.0 0.00 0.00 0.00 92 1016.0
20260510043237 64 239 1.0 3.0 0.00 0.00 0.00 91 1016.1
20260510042734 64 235 1.0 6.0 0.00 0.00 0.00 92 1015.8
20260510042229 64 250 1.0 3.0 0.00 0.00 0.00 91 1016.2
20260510041727 64 263 1.0 2.0 0.00 0.00 0.00 91 1016.2
20260510041224 64 243 0.0 4.0 0.00 0.00 0.00 91 1016.4
20260510040721 64 242 2.0 3.0 0.00 0.00 0.00 91 1016.1
20260510040218 64 252 3.0 6.0 0.00 0.00 0.00 91 1016.1
20260510035713 64 250 2.0 3.0 0.00 0.00 0.00 91 1016.2
20260510035209 64 249 3.0 6.0 0.00 0.00 0.00 91 1015.9
20260510034705 64 241 1.0 3.0 0.00 0.00 0.00 91 1016.1
20260510034203 64 237 1.0 2.0 0.00 0.00 0.00 91 1015.9
20260510033659 64 259 1.0 2.0 0.00 0.00 0.00 91 1016.2
20260510033157 64 248 4.0 6.0 0.00 0.00 0.00 91 1016.0
20260510032653 64 232 0.0 3.0 0.00 0.00 0.00 91 1015.9
20260510032149 64 240 1.0 3.0 0.00 0.00 0.00 91 1015.9
20260510031643 64 256 0.0 2.0 0.00 0.00 0.00 91 1016.0
20260510031140 64 227 1.0 3.0 0.00 0.00 0.00 91 1015.9
20260510030635 64 237 0.0 1.0 0.00 0.00 0.00 91 1016.0
20260510030133 64 239 0.0 1.0 0.00 0.00 0.00 91 1015.8
20260510025629 64 247 1.0 2.0 0.00 0.00 0.00 90 1015.8
20260510025127 64 240 0.0 1.0 0.00 0.00 0.00 90 1015.7
20260510024624 64 250 0.0 1.0 0.00 0.00 0.00 90 1015.7
20260510024120 64 246 1.0 2.0 0.00 0.00 0.00 90 1015.4
20260510023616 64 246 0.0 1.0 0.00 0.00 0.00 89 1015.5
20260510023114 64 230 0.0 1.0 0.00 0.00 0.00 89 1015.3
20260510022614 65 261 0.0 1.0 0.00 0.00 0.00 89 1015.4
20260510022108 65 193 1.0 1.0 0.00 0.00 0.00 88 1015.4
20260510021604 65 233 1.0 2.0 0.00 0.00 0.00 88 1015.3
20260510021102 65 234 1.0 2.0 0.00 0.00 0.00 88 1015.3
20260510020556 65 214 1.0 3.0 0.00 0.00 0.00 88 1015.2
20260510020052 65 240 1.0 4.0 0.00 0.00 0.00 88 1015.2
20260510015548 65 235 0.0 2.0 0.00 0.00 0.00 88 1015.0
20260510015044 65 202 1.0 3.0 0.00 0.00 0.00 87 1015.0
20260510014540 65 222 0.0 2.0 0.00 0.00 0.00 87 1015.1
20260510014038 65 214 1.0 4.0 0.00 0.00 0.00 87 1015.1
20260510013532 65 213 0.0 1.0 0.00 0.00 0.00 87 1014.8
20260510013028 65 197 0.0 3.0 0.00 0.00 0.00 87 1014.6
20260510012522 65 185 0.0 1.0 0.00 0.00 0.00 87 1014.7
20260510012019 65 187 0.0 0.0 0.00 0.00 0.00 87 1014.6
20260510011519 66 220 0.0 1.0 0.00 0.00 0.00 86 1014.6
20260510011014 66 246 0.0 2.0 0.00 0.00 0.00 86 1014.6
20260510010512 66 196 1.0 3.0 0.00 0.00 0.00 86 1014.5
20260510010009 66 236 2.0 2.0 0.00 0.00 0.00 86 1014.3
20260510005504 66 233 0.0 1.0 0.00 0.00 0.00 85 1014.4
20260510005002 66 228 0.0 2.0 0.00 0.00 0.00 85 1014.3
20260510004459 66 201 1.0 2.0 0.00 0.00 0.00 85 1014.3
20260510003957 66 209 1.0 2.0 0.00 0.00 0.00 84 1014.3
20260510003454 66 231 0.0 1.0 0.00 0.00 0.00 84 1014.4
20260510002949 66 216 0.0 2.0 0.00 0.00 0.00 84 1014.3
20260510002445 66 241 2.0 3.0 0.00 0.00 0.00 83 1014.3
20260510001942 67 230 0.0 0.0 0.00 0.00 0.00 83 1014.2
20260510001439 67 226 0.0 0.0 0.00 0.00 0.00 82 1014.2
20260510000937 67 278 1.0 1.0 0.00 0.00 0.00 82 1013.8
20260510000433 68 228 0.0 2.0 0.00 0.00 0.00 81 1014.2
20260509235929 68 214 1.0 2.0 0.00 0.00 0.00 81 1014.2
20260509235426 68 231 0.0 2.0 0.00 0.00 0.00 80 1014.1
20260509234922 68 234 0.0 2.0 0.00 0.00 0.00 80 1014.0
20260509234419 68 224 0.0 2.0 0.00 0.00 0.00 79 1014.0
20260509233917 69 202 3.0 4.0 0.00 0.00 0.00 79 1013.7
20260509233415 69 241 1.0 2.0 0.00 0.00 0.00 78 1013.5
20260509232910 69 224 0.0 1.0 0.00 0.00 0.00 79 1013.5
20260509232409 69 223 0.0 1.0 0.00 0.00 0.00 78 1013.8
20260509231904 69 237 0.0 0.0 0.00 0.00 0.00 78 1013.4
20260509231401 69 199 0.0 8.0 0.00 0.00 0.00 76 1013.6
20260509230859 70 164 2.0 3.0 0.00 0.00 0.00 76 1013.6
20260509230356 70 232 1.0 3.0 0.00 0.00 0.00 75 1013.3
20260509225851 70 248 0.0 2.0 0.00 0.00 0.00 76 1013.3
20260509225348 70 193 1.0 3.0 0.00 0.00 0.00 75 1013.7
20260509224844 71 185 1.0 2.0 0.00 0.00 0.00 74 1013.5
20260509224340 71 205 0.0 1.0 0.00 0.00 0.00 75 1013.4
20260509223837 71 209 1.0 2.0 0.00 0.00 0.00 74 1013.1
20260509223334 71 215 3.0 4.0 0.00 0.00 0.00 73 1013.1
20260509222831 72 230 0.0 3.0 0.00 0.00 0.00 72 1013.3
20260509222326 72 197 2.0 3.0 0.00 0.00 0.00 71 1013.4
20260509221822 72 229 0.0 1.0 0.00 0.00 0.00 73 1013.2
20260509221320 72 201 1.0 2.0 0.00 0.00 0.00 72 1013.1
20260509220819 71 198 0.0 1.0 0.00 0.00 0.00 74 1013.3
20260509220316 72 247 0.0 4.0 0.00 0.00 0.00 72 1013.1
20260509215811 73 252 0.0 3.0 0.00 0.00 0.00 70 1013.4
20260509215308 73 155 0.0 1.0 0.00 0.00 0.00 71 1013.2
20260509214805 73 242 1.0 4.0 0.00 0.00 0.00 70 1013.2
20260509214302 73 225 2.0 4.0 0.00 0.00 0.00 71 1013.1
20260509213759 73 232 0.0 3.0 0.00 0.00 0.00 71 1013.0
20260509213255 73 123 0.0 1.0 0.00 0.00 0.00 74 1012.9
20260509212752 72 262 0.0 2.0 0.00 0.00 0.00 71 1012.8
20260509212250 72 212 1.0 2.0 0.00 0.00 0.00 71 1012.8
20260509211745 73 190 2.0 4.0 0.00 0.00 0.00 71 1012.9
20260509211242 73 182 2.0 4.0 0.00 0.00 0.00 71 1013.0
20260509210738 73 228 0.0 2.0 0.00 0.00 0.00 71 1012.9
20260509210237 75 276 0.0 2.0 0.00 0.00 0.00 69 1012.8
20260509205735 74 204 1.0 1.0 0.00 0.00 0.00 70 1012.9
20260509205236 73 178 5.0 6.0 0.00 0.00 0.00 69 1013.0
20260509204732 73 235 0.0 6.0 0.00 0.00 0.00 71 1013.0
20260509204229 73 177 0.0 3.0 0.00 0.00 0.00 72 1012.9
20260509203724 73 228 1.0 6.0 0.00 0.00 0.00 69 1013.0
20260509203223 75 225 1.0 2.0 0.00 0.00 0.00 67 1013.2
20260509202718 76 224 1.0 2.0 0.00 0.00 0.00 67 1013.1
20260509202213 76 206 2.0 4.0 0.00 0.00 0.00 63 1013.3
20260509201709 76 204 1.0 3.0 0.00 0.00 0.00 63 1013.3
20260509201206 75 203 1.0 3.0 0.00 0.00 0.00 65 1013.2
20260509200702 73 218 3.0 4.0 0.00 0.00 0.00 67 1013.1
20260509200157 74 219 2.0 3.0 0.00 0.00 0.00 67 1013.2
20260509195654 73 269 2.0 3.0 0.00 0.00 0.00 68 1013.2
20260509195149 73 242 2.0 3.0 0.00 0.00 0.00 68 1013.4
20260509194648 74 162 0.0 3.0 0.00 0.00 0.00 69 1013.1
20260509194146 73 235 0.0 3.0 0.00 0.00 0.00 68 1013.3
20260509193641 72 217 0.0 3.0 0.00 0.00 0.00 72 1013.4
20260509193132 72 234 2.0 4.0 0.00 0.00 0.00 69 1013.4
20260509192629 72 178 3.0 6.0 0.00 0.00 0.00 70 1013.5
20260509192123 72 187 0.0 3.0 0.00 0.00 0.00 72 1013.5
20260509191618 73 244 1.0 2.0 0.00 0.00 0.00 70 1013.4
20260509191115 73 226 1.0 2.0 0.00 0.00 0.00 68 1013.6
20260509190611 73 213 0.0 1.0 0.00 0.00 0.00 69 1013.4
20260509190109 72 232 0.0 1.0 0.00 0.00 0.00 70 1013.2
20260509185606 72 270 3.0 6.0 0.00 0.00 0.00 70 1013.5
20260509185102 73 230 0.0 1.0 0.00 0.00 0.00 70 1013.6
20260509184601 73 242 0.0 4.0 0.00 0.00 0.00 67 1013.2
20260509184057 72 186 1.0 2.0 0.00 0.00 0.00 70 1013.3
20260509183552 72 192 2.0 4.0 0.00 0.00 0.00 69 1013.8
20260509183048 72 241 2.0 6.0 0.00 0.00 0.00 71 1014.1
20260509182545 71 281 4.0 6.0 0.00 0.00 0.00 72 1013.7
20260509182042 71 264 0.0 6.0 0.00 0.00 0.00 72 1013.7
20260509181540 71 242 2.0 4.0 0.00 0.00 0.00 74 1013.7
20260509181037 71 248 3.0 4.0 0.00 0.00 0.00 72 1013.7
20260509180533 71 250 3.0 6.0 0.00 0.00 0.00 73 1013.6
20260509180030 70 244 0.0 3.0 0.00 0.00 0.00 75 1013.6
20260509175525 71 248 2.0 7.0 0.00 0.00 0.00 76 1013.6
20260509175023 71 248 4.0 6.0 0.00 0.00 0.00 73 1014.1
20260509174519 71 264 2.0 2.0 0.00 0.00 0.00 75 1013.8
20260509174014 68 246 1.0 3.0 0.00 0.00 0.00 82 1014.0
20260509173509 68 217 1.0 3.0 0.00 0.00 0.00 82 1014.1
20260509173005 67 230 0.0 4.0 0.00 0.00 0.00 84 1014.3
20260509172503 67 248 1.0 6.0 0.00 0.00 0.00 85 1014.2
20260509171958 66 242 0.0 1.0 0.00 0.00 0.00 86 1014.4
20260509171454 66 248 2.0 4.0 0.00 0.00 0.00 86 1014.2
20260509170951 66 269 1.0 3.0 0.00 0.00 0.00 87 1014.1
20260509170446 66 254 2.0 3.0 0.00 0.00 0.00 87 1014.1
20260509165942 66 208 2.0 4.0 0.00 0.00 0.00 87 1014.2
20260509165441 67 245 1.0 6.0 0.00 0.00 0.00 86 1014.0
20260509164937 67 232 3.0 3.0 0.00 0.00 0.00 86 1014.2
20260509164433 66 239 0.0 2.0 0.00 0.00 0.00 89 1014.4
20260509163929 65 245 1.0 3.0 0.00 0.00 0.00 90 1014.6
20260509163427 64 240 2.0 3.0 0.00 0.00 0.00 90 1014.6
20260509162926 64 254 3.0 6.0 0.00 0.00 0.00 91 1014.6
20260509162425 64 228 2.0 3.0 0.00 0.00 0.00 91 1014.3
20260509161920 64 244 4.0 7.0 0.00 0.00 0.00 91 1014.8
20260509161417 64 228 4.0 4.0 0.00 0.00 0.00 90 1014.7
20260509160912 64 260 2.0 3.0 0.00 0.00 0.00 90 1014.5
20260509160408 64 260 2.0 4.0 0.00 0.00 0.00 90 1014.6
20260509155904 64 152 0.0 7.0 0.00 0.00 0.00 90 1014.6
20260509155401 64 241 0.0 2.0 0.00 0.00 0.00 90 1014.5
20260509154857 64 211 1.0 1.0 0.00 0.00 0.00 90 1014.2
20260509154354 64 257 2.0 4.0 0.00 0.00 0.00 91 1014.6
20260509153850 63 241 1.0 3.0 0.00 0.00 0.00 91 1014.7
20260509153348 63 250 2.0 3.0 0.00 0.00 0.00 91 1014.7
20260509152844 63 252 1.0 4.0 0.00 0.00 0.00 91 1015.0
20260509152340 63 261 3.0 6.0 0.00 0.00 0.00 90 1014.9
20260509151838 64 198 1.0 3.0 0.00 0.00 0.00 90 1015.0
20260509151334 64 234 1.0 2.0 0.00 0.00 0.00 90 1014.7
20260509150832 64 201 0.0 3.0 0.00 0.00 0.00 90 1015.0
20260509150329 64 239 2.0 4.0 0.00 0.00 0.00 89 1014.9
20260509145827 64 210 0.0 1.0 0.00 0.00 0.00 89 1015.0
20260509145321 64 230 0.0 0.0 0.00 0.00 0.00 90 1015.0
20260509144818 63 225 0.0 2.0 0.00 0.00 0.00 91 1015.0
20260509144315 63 215 1.0 2.0 0.00 0.00 0.00 91 1015.2
20260509143812 62 182 3.0 4.0 0.00 0.00 0.00 91 1015.0
20260509143309 62 233 1.0 3.0 0.00 0.00 0.00 91 1014.9
20260509142805 63 118 2.0 4.0 0.00 0.00 0.00 91 1014.8
20260509142256 63 228 0.0 3.0 0.00 0.00 0.00 91 1014.8
20260509141751 63 190 2.0 3.0 0.00 0.00 0.00 91 1014.7
20260509141249 63 214 0.0 1.0 0.00 0.00 0.00 91 1014.6
20260509140745 62 226 0.0 2.0 0.00 0.00 0.00 91 1014.6
20260509140243 63 194 2.0 3.0 0.00 0.00 0.00 90 1014.6
20260509135740 63 192 1.0 2.0 0.00 0.00 0.00 91 1014.4
20260509135238 63 154 0.0 0.0 0.00 0.00 0.00 91 1014.1
20260509134734 63 154 0.0 0.0 0.00 0.00 0.00 91 1014.2
20260509134232 63 173 0.0 2.0 0.00 0.00 0.00 90 1014.4
20260509133729 63 210 0.0 0.0 0.00 0.00 0.00 89 1014.0
20260509133226 64 193 2.0 3.0 0.00 0.00 0.00 88 1014.3
20260509132725 65 222 1.0 4.0 0.00 0.00 0.00 87 1013.8
20260509132223 64 229 0.0 0.0 0.00 0.00 0.00 88 1014.0
20260509131719 64 145 0.0 1.0 0.00 0.00 0.00 89 1014.0
20260509131215 64 196 0.0 1.0 0.00 0.00 0.00 89 1014.1
20260509130711 63 195 0.0 0.0 0.00 0.00 0.00 89 1013.8
20260509130207 63 119 0.0 0.0 0.00 0.00 0.00 90 1013.7
20260509125704 63 118 0.0 2.0 0.00 0.00 0.00 90 1013.6
20260509125201 63 119 0.0 0.0 0.00 0.00 0.00 90 1013.8
20260509124657 62 119 0.0 1.0 0.00 0.00 0.00 91 1013.8
20260509124154 62 119 0.0 0.0 0.00 0.00 0.00 92 1014.0
20260509123653 62 119 0.0 0.0 0.00 0.00 0.00 92 1013.8
20260509123149 61 119 0.0 0.0 0.00 0.00 0.00 92 1014.1
20260509122645 60 119 0.0 1.0 0.00 0.00 0.00 92 1014.0
20260509122142 60 245 0.0 0.0 0.00 0.00 0.00 93 1013.8
20260509121638 60 239 0.0 0.0 0.00 0.00 0.00 94 1014.1
20260509121137 60 237 0.0 0.0 0.00 0.00 0.00 94 1014.2
20260509120634 60 232 0.0 0.0 0.00 0.00 0.00 95 1014.1
20260509120132 60 232 0.0 0.0 0.00 0.00 0.00 95 1014.0
20260509115629 60 235 0.0 0.0 0.00 0.00 0.00 96 1014.1
20260509115127 60 237 0.0 0.0 0.00 0.00 0.00 96 1014.3
20260509114625 59 237 0.0 0.0 0.00 0.00 0.00 96 1014.2
20260509114123 59 237 0.0 0.0 0.00 0.00 0.00 96 1014.2
20260509113621 59 235 0.0 0.0 0.00 0.00 0.00 97 1014.1
20260509113118 59 235 0.0 0.0 0.00 0.00 0.00 97 1014.2
20260509112615 59 235 0.0 0.0 0.00 0.00 0.00 97 1014.0
20260509112112 59 235 0.0 0.0 0.00 0.00 0.00 97 1014.0
20260509111609 59 235 0.0 0.0 0.00 0.00 0.00 97 1014.0
20260509111106 58 235 0.0 0.0 0.00 0.00 0.00 98 1014.0
20260509110603 58 235 0.0 0.0 0.00 0.00 0.00 98 1013.7
20260509110100 58 235 0.0 0.0 0.00 0.00 0.00 98 1013.8
20260509105558 58 235 0.0 0.0 0.00 0.00 0.00 98 1013.7
20260509105055 58 143 0.0 0.0 0.00 0.00 0.00 98 1013.3
20260509104552 58 142 0.0 0.0 0.00 0.00 0.00 98 1013.3
20260509104049 58 242 0.0 0.0 0.00 0.00 0.00 98 1013.4
20260509103547 58 241 0.0 0.0 0.00 0.00 0.00 98 1013.5
20260509103045 58 241 0.0 0.0 0.00 0.00 0.00 98 1013.6
20260509102542 58 241 0.0 0.0 0.00 0.00 0.00 98 1013.5
20260509102039 58 241 0.0 0.0 0.00 0.00 0.00 98 1013.7
20260509101535 58 241 0.0 0.0 0.00 0.00 0.00 98 1014.0
20260509101032 58 241 0.0 0.0 0.00 0.00 0.00 98 1014.1
20260509100529 58 241 0.0 0.0 0.00 0.00 0.00 98 1014.2
20260509100027 58 241 0.0 0.0 0.00 0.00 0.00 98 1014.2
20260509095523 58 241 0.0 0.0 0.00 0.00 0.00 98 1014.0
20260509095021 58 241 0.0 0.0 0.00 0.00 0.00 98 1014.0
20260509094516 58 241 0.0 0.0 0.00 0.00 0.00 98 1014.3
20260509094014 58 242 0.0 0.0 0.00 0.00 0.00 98 1014.1
20260509093512 57 239 0.0 0.0 0.00 0.00 0.00 98 1014.2
20260509093010 57 239 0.0 0.0 0.00 0.00 0.00 98 1014.1
20260509092507 57 240 0.0 0.0 0.00 0.00 0.00 98 1014.2
20260509092006 57 240 0.0 0.0 0.00 0.00 0.00 98 1014.0
20260509091503 57 240 0.0 0.0 0.00 0.00 0.00 98 1014.2
20260509090959 57 240 0.0 0.0 0.00 0.00 0.00 98 1013.7
20260509090456 57 240 0.0 0.0 0.00 0.00 0.00 98 1013.8
20260509085954 57 240 0.0 0.0 0.00 0.00 0.00 98 1014.2
20260509085451 57 239 0.0 0.0 0.00 0.00 0.00 99 1014.0
20260509084947 57 239 0.0 0.0 0.00 0.00 0.00 99 1014.1
20260509084444 57 239 0.0 0.0 0.00 0.00 0.00 99 1013.7
20260509083941 57 239 0.0 0.0 0.00 0.00 0.00 99 1013.6
20260509083439 57 239 0.0 0.0 0.00 0.00 0.00 99 1013.8
20260509082935 57 237 0.0 0.0 0.00 0.00 0.00 99 1013.5
20260509082432 57 239 0.0 0.0 0.00 0.00 0.00 99 1013.7
20260509081929 57 239 0.0 0.0 0.00 0.00 0.00 99 1014.0
20260509081427 57 237 0.0 0.0 0.00 0.00 0.00 99 1013.7
20260509080924 56 222 0.0 0.0 0.00 0.00 0.00 99 1013.6
20260509080422 56 221 0.0 0.0 0.00 0.00 0.00 99 1013.8
20260509075920 56 222 0.0 0.0 0.00 0.00 0.00 99 1013.6
20260509075416 56 220 0.0 0.0 0.00 0.00 0.00 99 1013.5
20260509074914 56 220 0.0 0.0 0.00 0.00 0.00 99 1013.5
20260509074412 56 220 0.0 0.0 0.00 0.00 0.00 98 1013.6
20260509073908 56 220 0.0 0.0 0.00 0.00 0.00 98 1013.8
20260509073404 56 220 0.0 0.0 0.00 0.00 0.00 98 1013.6
20260509072901 55 220 0.0 0.0 0.00 0.00 0.00 98 1013.5
20260509072357 55 220 0.0 0.0 0.00 0.00 0.00 98 1013.7
20260509071854 56 220 0.0 0.0 0.00 0.00 0.00 98 1013.3
20260509071351 56 220 0.0 0.0 0.00 0.00 0.00 98 1013.4
20260509070848 57 220 0.0 0.0 0.00 0.00 0.00 98 1013.5
20260509070345 57 220 0.0 0.0 0.00 0.00 0.00 98 1013.8
20260509065841 57 220 0.0 0.0 0.00 0.00 0.00 98 1014.2
20260509065337 57 220 0.0 0.0 0.00 0.00 0.00 98 1014.2
20260509064833 57 220 0.0 0.0 0.00 0.00 0.00 98 1014.3
20260509064331 57 220 0.0 0.0 0.00 0.00 0.00 98 1014.5
20260509063829 57 220 0.0 0.0 0.00 0.00 0.00 98 1014.7
20260509063324 57 220 0.0 0.0 0.00 0.00 0.00 97 1014.7
20260509062822 57 220 0.0 0.0 0.00 0.00 0.00 97 1014.7
20260509062319 57 220 0.0 0.0 0.00 0.00 0.00 97 1015.0
20260509061816 57 220 0.0 0.0 0.00 0.00 0.00 97 1015.2
20260509061314 57 220 0.0 0.0 0.00 0.00 0.00 97 1014.9
20260509060811 57 220 0.0 0.0 0.00 0.00 0.00 97 1015.2
20260509060308 56 220 0.0 0.0 0.00 0.00 0.00 97 1015.0
20260509055803 56 220 0.0 0.0 0.00 0.00 0.00 97 1015.1
20260509055259 56 220 0.0 0.0 0.00 0.00 0.00 97 1015.2
20260509054756 56 220 0.0 0.0 0.00 0.00 0.00 96 1015.1
20260509054252 56 220 0.0 0.0 0.00 0.00 0.00 96 1014.9
20260509053751 56 220 0.0 0.0 0.00 0.00 0.00 96 1015.2
20260509053248 57 220 0.0 0.0 0.00 0.00 0.00 96 1015.2
20260509052746 57 220 0.0 0.0 0.00 0.00 0.00 96 1015.2
20260509052243 57 220 0.0 0.0 0.00 0.00 0.00 96 1015.4